Weather History for Williamsport, PA

Change the Weather History Date:

Wednesday, January 1, 2014

  Actual Average Record
Temperature  
Mean Temperature 21 °F 27 °F  
Max Temperature 27 °F 35 °F 62 °F (1979)
Min Temperature 15 °F 20 °F -7 °F (1918)
Degree Days  
Heating Degree Days 44 38  
Month to date heating degree days 44 38  
Since 1 July heating degree days 2360 2331  
Cooling Degree Days 0 0  
Month to date cooling degree days 0 0  
Year to date cooling degree days 0 0  
Moisture  
Dew Point 16 °F    
Average Humidity 73    
Maximum Humidity 88    
Minimum Humidity 57    
Precipitation  
Precipitation 0.01 in 0.08 in 1.33 in (1948)
Month to date precipitation 0.01 0.08  
Year to date precipitation 0.01 0.08  
Snow  
Snow 0.10 in - - ()
Month to date snowfall 0.1  
Since 1 July snowfall 16.4  
Snow Depth T in    
Sea Level Pressure  
Sea Level Pressure 30.33 in    
Wind  
Wind Speed 1 mph (WNW)    
Max Wind Speed 7 mph    
Max Gust Speed 10 mph    
Visibility 8 miles    
Events Snow    
T = Trace of Precipitation, MM = Missing Value Source: NWS Daily Summary

Daily Weather History Graph

Daily Weather History Graph

Search for Another Location

Airport:

Trip Planner

Search our weather history database for the weather conditions in past years. The results will help you decide how hot, cold, wet, or windy it might be!

Date:

Astronomy

Jan. 01, 2014 Rise Set
Actual Time 7:33 AM EST 4:49 PM EST
Civil Twilight 7:02 AM EST 5:20 PM EST
Nautical Twilight 6:27 AM EST 5:55 PM EST
Astronomical Twilight 5:54 AM EST 6:28 PM EST
Moon 7:21 AM EST (1/1) 5:32 PM EST (1/1)
Length of Visible Light 10h 18m
Length of Day
9h 16m
New Moon, 0% of the Moon is Illuminated
Jan 1
New Moon
Jan 7
First Quarter
Jan 15
Full
Jan 24
Last Quarter
Jan 30
New

Hourly Weather History & Observations

Time (EST) Temp. Windchill Dew Point Humidity Pressure Visibility Wind Dir Wind Speed Gust Speed Precip Events Conditions
12:54 AM 21.0 °F 13.4 °F 10.0 °F 63% 30.29 in 10.0 mi West 5.8 mph - N/A   Scattered Clouds
1:54 AM 19.0 °F 13.9 °F 10.9 °F 71% 30.31 in 10.0 mi SW 3.5 mph - N/A   Clear
2:54 AM 17.1 °F - 10.0 °F 74% 30.33 in 9.0 mi Calm Calm - N/A   Partly Cloudy
3:54 AM 17.1 °F - 10.0 °F 74% 30.34 in 10.0 mi Calm Calm - N/A   Overcast
4:54 AM 17.1 °F - 10.9 °F 77% 30.35 in 10.0 mi Calm Calm - N/A   Overcast
5:54 AM 16.0 °F - 10.9 °F 81% 30.36 in 10.0 mi Calm Calm - N/A   Mostly Cloudy
6:54 AM 16.0 °F - 10.9 °F 81% 30.37 in 9.0 mi Calm Calm - 0.00 in Snow Light Snow
7:54 AM 16.0 °F 10.4 °F 12.0 °F 84% 30.38 in 9.0 mi NNE 3.5 mph - 0.00 in   Overcast
8:54 AM 18.0 °F - 12.0 °F 78% 30.40 in 10.0 mi Calm Calm - N/A   Overcast
9:54 AM 19.9 °F - 15.1 °F 81% 30.41 in 4.0 mi Calm Calm - 0.00 in Snow Light Snow
10:54 AM 23.0 °F - 18.0 °F 81% 30.40 in 3.0 mi Calm Calm - 0.00 in Snow Light Snow
11:00 AM 23.0 °F - 17.6 °F 80% 30.37 in 1.8 mi Calm Calm - 0.00 in Snow Light Snow
11:05 AM 21.2 °F - 17.6 °F 86% 30.37 in 1.5 mi Calm Calm - 0.00 in Snow Light Snow
11:29 AM 23.0 °F - 17.6 °F 80% 30.36 in 3.0 mi Calm Calm - 0.01 in Snow Light Snow
11:42 AM 24.8 °F - 17.6 °F 74% 30.35 in 3.0 mi Calm Calm - 0.01 in Snow Light Snow
11:54 AM 24.1 °F - 18.0 °F 77% 30.37 in 3.0 mi Calm Calm - 0.01 in Snow Light Snow
12:54 PM 25.0 °F - 18.0 °F 75% 30.34 in 6.0 mi Calm Calm - 0.00 in Snow Light Snow
1:54 PM 26.1 °F - 19.0 °F 75% 30.32 in 7.0 mi Calm Calm - 0.00 in   Overcast
2:54 PM 26.1 °F - 19.0 °F 75% 30.32 in 7.0 mi Calm Calm - 0.00 in Snow Light Snow
3:54 PM 27.0 °F - 19.0 °F 72% 30.31 in 10.0 mi Calm Calm - 0.00 in   Overcast
4:54 PM 26.1 °F - 19.9 °F 78% 30.30 in 10.0 mi Calm Calm - N/A   Overcast
5:54 PM 26.1 °F - 19.9 °F 78% 30.29 in 10.0 mi Calm Calm - N/A   Clear
6:54 PM 26.1 °F - 21.0 °F 81% 30.30 in 9.0 mi Calm Calm - N/A   Overcast
7:54 PM 26.1 °F - 21.9 °F 84% 30.29 in 9.0 mi Calm Calm - N/A   Overcast
8:54 PM 26.1 °F - 21.0 °F 81% 30.27 in 9.0 mi Calm Calm - N/A   Overcast
9:54 PM 25.0 °F - 21.0 °F 85% 30.25 in 9.0 mi Calm Calm - N/A   Overcast
10:54 PM 23.0 °F - 19.9 °F 88% 30.22 in 7.0 mi Calm Calm - N/A   Partly Cloudy
11:54 PM 23.0 °F - 19.9 °F 88% 30.19 in 7.0 mi Calm Calm - N/A   Clear